Title:  
GGBases > 538 Results Login Signup
#TitleSizeDate
B M E 6 [AVG][121130][Iris]ないしょのないしょ!/秘密的秘密 汉化版[Chinese] 1.98G2017-03-28 14:14
B M E 7 [AVG][110814][NANACAN]妹調教日記 本体 + FD 汉化版[Chinese] 2.66G2017-03-25 10:10
B M E 31 [ACT] [160826] [戯画] BALDR HEART -バルドハート- [汉化硬盘版] 5.94G2017-03-25 08:06
B M E 9 [160826][戯画] BALDR HEART -バルドハート- [汉化硬盘版] 5.94G2017-03-25 04:56
B M E 12 [AVG][120330][ゆずソフト]DRACU-RIOT! 汉化版[Chinese] 3.45G2017-03-23 14:10
B M E 1 [AVG][051125][AKABEiSOFT2]車輪の国、向日葵の少女 + 悠久の少年少女 汉化版[Chinese] 2.55G2017-03-22 11:12
B M E 27 [AVG][120622][Empress]LEWDNESS~Vita sexualis~汉化版[Chinese] 2.71G2017-03-21 16:41
B M E 29 [SLG][120427][Dual Tail]VenusBlood-FRONTIER-汉化版[Chinese] 2.7G2017-03-19 10:49
B M E 8 [AVG][121026][Navel]月に寄りそう乙女の作法/近月少女的礼仪 汉化版[Chinese] 5.41G2017-03-17 16:10
B M E 17 [AVG][141031][Navel]月に寄りそう乙女の作法2/近月少女的礼仪2 汉化版[Chinese] 5.74G2017-03-16 16:18
B M E 12 [AVG][130531][CIRCUS]D.C.III.R_X 汉化版[Chinese] 3.51G2017-03-16 13:25
B M E 70 [AVG][091218][Alicesoft]校内赤線区域 原版+機能追加版 汉化版[Chinese] 1.67G2017-03-16 05:24
B M E 22 [SLG][100129][XUSE]聖なるかな・外伝 精霊天翔~壊れゆく世界の少女たち~/精灵天翔.迈向毁灭世界的少女们 汉化版[Chinese] 1.64G2017-03-14 15:33
B M E 23 [AVG][141128][CYCLET]駄作 汉化版[Chinese] 1.5G2017-03-13 17:03
B M E 4 [AVG][150123][BaseSon]きみはね 彼女と彼女の恋する1ヶ月/君羽 她与她相恋的一个月 汉化版[Chinese] 535.2M2017-03-13 11:06
B M E 4 [AVG][101125][Key]Little Busters Ex 汉化版[Chinese] 3.45G2017-03-11 16:05
B M E 9 [AVG][110224][enterbrain]圣诞之吻:小小惊喜剧场 汉化版[Chinese] 486.4M2017-03-11 06:00
B M E 5 [AVG][100625][Key]kud wafter 汉化版[Chinese] 2.24G2017-03-10 18:19
B M E 11 [130628][onomatope*]ずっとすきして たくさんすきして\挚爱随行_倾慕相伴 [汉化硬盘版] 2.76G2017-03-09 15:02
B M E 26 [AVG][140530]妹寝取り~身も心もお兄ちゃんのモノ~/妹妹寝取~身心都是哥哥的所有物~ 汉化版[Chinese] 735.2M2017-03-09 14:29
B M E 8 [170224][Recette]しゅがてん!\糖调!-sugarfull tempering- [汉化硬盘版(共通线)] 1.18G2017-03-05 11:33
B M E 10 [AVG][161125][SWEET&TEA]枯れない世界と終わる花/永不枯萎的世界与终结之花 汉化版[Chinese] 4.52G2017-03-03 16:17
B M E 8 [AVG][160325][あっぷりけ]時を紡ぐ約束/编织时间的约定 汉化版[Chinese] 3.81G2017-03-02 04:57
B M E 11 [AVG][120224][Sugar pot]ツクモノツキ/九十九之月 汉化版[Chinese] 1.1G2017-02-25 11:22
B M E 10 [AVG][140328][NanaWind]ALIA's_CARNIVAL 共通线汉化版V1.03b[Chinese] 2.69G2017-02-20 14:34
B M E 8 [AVG][140725][FAVORITE]アストラエアの白き永遠/星辰恋曲的白色永恒v2.0 汉化版[Chinese] 5.77G2017-02-19 09:28
B M E 12 [AVG][170127][FAVORITE]アストラエアの白き永遠 Finale -白き星の夢-/星辰恋曲的白色永恒-Finale- V1.1 汉化版[Chinese] 4.83G2017-02-17 18:45
B M E 26 [AVG][031024][HERMIT]FOLKLORE JAM 汉化版[Chinese] 705.5M2017-02-14 14:37
B M E 19 [RPG][120224][Studio e.go!]IZUMO2 汉化版[Chinese] 1.45G2017-02-12 13:54
B M E 17 [RPG][011221][Studio e.go!]IZUMO 汉化版[Chinese] 1.06G2017-02-12 13:53
B M E 8 [RPG][040730][Studio e.go!]IZUMO2 汉化版[Chinese] 1.1G2017-02-12 13:53
B M E 7 [AVG][120727][Latte]第2回妹選抜☆総選挙/第二回妹选拔总选举 汉化版[Chinese] 832.1M2017-02-11 05:59
B M E 18 [AVG][20100326][Leaf]WHITE ALBUM2 /白色相簿 2 汉化版[Chinese] 6.45G2017-02-10 04:53
B M E 27 [AVG][19980501][Leaf]WHITE ALBUM/白色相簿 1 原版+重制版 汉化版[Chinese] 1.37G2017-02-10 04:51
B M E 18 [AVG][120727][Silver Bullet]妹びらいざー!/妹锁 汉化版[Chinese] 3.21G2017-02-09 13:38
B M E 15 [AVG][130103][ケロQ]素晴らしき日々 ~不連続存在~ /美好的每一天 ~不连续存在~ 汉化版[Chinese] 3.16G2017-02-07 12:50
B M E 12 [AVG][151210][5pb.]Steins;Gate 0/命运石之门 0 日文版 + 正式汉化版V2.4补丁[JP+CN_Patch] 7.52G2017-02-04 17:12
B M E 13 [AVG][140530][CUBE]your diary +H 汉化版V1.1[Chinese] 3.84G2017-02-03 16:53
B M E 12 [170125][Recette]しゅがてん!/ 糖调! -sugarfull tempering- [汉化硬盘体验版] 820.5M2017-02-02 22:05
B M E 32 [AVG][131025][Ricotta]ワルキューレロマンツェ/少女骑士物语 More&More 完全汉化版V20170131[Chinese] 7.71G2017-02-02 16:35
B M E 29 [AVG][040611][Black Cyc]MinDeaD BlooD~支配者の為の狂死曲~/~献给支配者的狂死曲~ 汉化版[Chinese] 854.3M2017-01-28 20:20
B M E 34 [AVG][111222][SherbetSoft]制服天使 汉化版[Chinese] 988.5M2017-01-28 20:15
B M E 43 [AVG][131031][sistersoft]ディアシスター~まゆはお兄ちゃんのモノなんだからねっ!!/Dear Sister~真由是只属于哥哥的东西哦!! 汉化版[Chinese] 345.2M2017-01-28 19:51
B M E 23 [AVG][151030][Us:track]恋×シンアイ彼女/想要传达给你的爱恋 汉化版[Chinese] 2.17G2017-01-28 19:19
B M E 20 [AVG][160428][5pb.]混沌之子(CHAOS;CHILD) 日文版 + 汉化补丁[JP+CN_patch] 7.69G2017-01-28 14:09
B M E 16 [161125][ASa Project]スキとスキとでサンカク恋愛(青春×好奇相伴的三角恋爱)[汉化硬盘版] 2.31G2017-01-27 03:46
B M E 154 [AVG][alicesoft][160129]妻みぐい3 汉化版[Chinese] 2.09G2017-01-26 15:01
B M E 19 [161125][SWEET&TEA]枯れない世界と終わる花 [汉化硬盘版] 1.56G2017-01-18 03:22
B M E 16 [AVG][141219][ウグイスカグラ]紙の上の魔法使い/纸上魔法使 汉化修正版V1.1[Chinese] 2.6G2017-01-14 15:48
B M E 43 [AVG][160826][の~すとらいく]女装学園(孕) 汉化版[Chinese] 1.04G2017-01-03 13:51